SL-14 DEB

Satellite information

Favourite Embed

Satellite Type and Status

DEBRISIN ORBIT

Key statistics

Satellite SL-14 DEB at a glance.

Uptime

17054

Days in orbit

Revolutions

≈ 12.6

Per day

Orbit

LEO

Low Earth Orbit

Inclination

82.7

Latest

Satellite identification and parameters

Extended collection of information and parameters for SL-14 DEB.

Object identification

Identified? True

Debris? True

Object name: SL-14 DEB

International designator: 1978-100AL

Object number (NORAD): 19580

Object ID (CCSDS): 19580

Country: COMMONWEALTH OF INDEPENDENT STATES (CIS)

Current information (Y/N): Y

RCS size: SMALL

Orbital parameters

Period: 114.599 minutes

Inclination: 82.6545 deg

SMA: 7815.351 km

Apoapsis: 1672.759 km

Periapsis: 1201.673 km

RAAN: 162.0714 deg

Eccentricy: 0.0301385

Argument of periapsis: 200.0689 deg

Mean anomaly: 187.6303 deg

Mean motion: 12.56550732 rev/day

Mean motion (dot): 0.00000116 rev/day2

B* drag term: 0.00053789 1/REarth

Two-line elements (TLE)

Creation date: July 1, 2025, 10:36 p.m.

Reference frame: TEME

Reference center: EARTH

Epoch: July 1, 2025, 9:51 p.m. UTC

TLE line 0: 0 SL-14 DEB

TLE line 1: 1 19580U 78100AL 25182.91100638 .00000116 00000-0 53789-3 0 9998

TLE line 2: 2 19580 82.6545 162.0714 0301385 200.0689 187.6303 12.56550732653784

Live tracking on map

Real-time ground track for satellite SL-14 DEB.

In-orbit conjunctions

A list of the most updated potential collisions computed for object SL-14 DEB.

Target Orbit TCA Probability of collision Miss distance Type
BPA-2/SL-24 R/B SSO 2024-11-11 09:22:23 0.0001211708 563.0 (m) ROCKET BODY

Associated space launch

Mass model of the Meteor-2 meteorological satellite

SL-14 DEB was lifted into orbit during the mission ‘Tsiklon-3 | Meteor-2-GVM’, on board a Tsiklon-3 space rocket.

The launch took place on Oct. 26, 1978, 7 a.m. from 32/2.

For more information about the launch, click the button.

Launch to space Tsiklon-3 | Meteor-2-GVM
Tsiklon-3 | Meteor-2-GVM

Agency: N/A

Status: Launch Successful

Launch date: Oct. 26, 1978, 7 a.m. UTC

Rocket: Tsiklon-3

Launch pad: 32/2

Location: Plesetsk Cosmodrome, Russian Federation

...

Latest news about this satellite

There are no fresh news available about this satellite. Check back as we update our databases every day.


Newsletter sign-up

Weekly statistics, charts and insights to help you stay on top of the space industry.